Location: Croisilles
(50.1998°N, 2.8793°E)
Time: 03:04:25
(UTC+00:00)

Cosmos 1634 Rocket - Pass Details

Date: 21 January 2021
Orbit: 960 x 991 km, 82.9° (Epoch: 24 February)

Event Time Altitude Azimuth Distance (km) Brightness Sun altitude
Rises 16:47:36 0° 351° (N) 3,676 6.8 -4.2°
Reaches altitude 10° 16:50:08 10° 353° (N) 2,729 6.2 -4.5°
Maximum altitude 16:56:24 75° 79° (E) 1,015 4.0 -5.4°
Drops below altitude 10° 17:02:39 10° 165° (SSE) 2,732 6.5 -6.3°
Sets 17:05:11 0° 167° (SSE) 3,680 7.2 -6.7°
